Theta_e
309 309 309 309 309 309 309 309 309 309 309 309 309 308 308 307 307 307 307 307 307 307 307 308 308 310 312 314 314 315 315 314 313 314 317 319 317 318 318 317 316 314 313 312 315 317 316 315 315 315 317 320 322 325 322 323 328 331 332 326 325 328 328 332 328 320 323 325 321 319 320 319 319 319 316 315 316 317 317 319 318 317 315 313 314 312 311 309
309 309 310 310 310 310 310 309 309 309 309 309 309 309 308 308 307 307 307 307 307 307 307 307 307 308 310 313 314 315 315 314 316 316 316 317 317 319 319 317 314 313 313 313 316 316 316 317 316 315 319 324 324 323 322 324 326 331 333 326 327 333 331 328 323 320 321 319 321 321 321 319 319 320 317 316 320 318 317 318 317 317 316 311 310 308 308 307
310 310 310 310 310 310 310 310 309 309 309 309 309 309 309 308 308 308 308 307 307 307 307 307 307 308 308 312 314 314 316 318 322 323 318 318 318 319 320 317 314 312 312 314 318 318 317 318 315 316 320 322 325 325 325 324 324 330 329 327 334 334 327 324 320 320 319 318 320 319 318 318 318 318 316 317 320 319 318 317 317 318 317 314 309 306 306 305
311 310 310 310 310 310 310 310 309 309 309 309 309 309 308 308 308 308 308 308 307 307 307 307 307 308 308 311 314 314 319 322 325 324 320 320 320 319 319 317 314 312 312 313 318 319 317 317 315 318 319 320 325 326 328 326 323 326 324 326 334 327 321 323 320 320 320 319 319 320 318 317 318 317 316 318 318 318 318 316 316 317 316 315 309 306 305 304
311 311 311 311 311 310 310 310 310 310 309 309 309 309 309 308 308 308 308 308 308 308 308 307 308 308 308 312 314 316 319 317 320 322 318 320 320 320 319 316 314 311 312 313 315 316 315 316 315 318 319 320 324 324 329 328 322 323 322 323 327 323 320 321 320 321 321 318 318 319 317 317 318 317 318 319 317 317 317 316 316 316 316 314 310 307 305 304
311 311 311 311 311 311 310 310 310 310 310 310 309 309 309 309 309 308 308 308 308 308 308 308 308 308 310 313 314 317 316 313 318 321 317 317 318 319 318 314 313 311 312 313 314 315 316 316 316 320 320 320 322 322 326 326 321 323 323 321 322 321 320 318 319 321 319 316 318 317 316 316 316 317 319 318 316 316 317 320 319 316 314 312 309 307 306 306
312 311 311 311 311 311 310 310 310 310 310 310 310 309 309 309 309 308 308 308 308 308 308 308 308 309 311 314 317 321 323 321 320 318 317 317 316 317 315 312 311 310 311 313 314 315 317 318 318 321 321 320 321 321 321 321 320 323 323 321 320 319 319 317 318 321 319 317 318 317 315 315 316 317 317 317 316 315 316 319 319 315 312 311 310 309 308 308
312 311 311 311 311 311 311 310 310 310 310 310 310 310 310 309 309 309 309 309 308 308 308 308 309 310 311 317 324 328 327 324 318 317 317 316 315 315 313 311 310 310 311 312 314 315 317 318 319 319 320 320 321 320 320 319 320 322 321 320 318 318 319 318 318 320 319 318 318 316 315 316 317 315 315 315 315 315 316 316 316 316 315 316 312 310 309 308
311 311 311 310 310 310 310 310 310 310 310 310 310 310 310 310 310 310 309 309 309 308 308 309 310 311 311 316 323 323 323 322 319 319 318 315 314 312 311 311 311 311 311 313 314 314 316 320 321 319 319 321 320 319 320 319 320 321 319 318 318 318 319 318 317 318 319 319 316 315 316 316 314 314 314 314 313 314 315 315 316 315 317 318 314 311 309 309
312 311 311 311 310 310 310 309 309 309 309 309 310 310 310 310 310 310 310 310 309 309 308 309 311 312 312 315 321 319 318 321 319 319 318 315 314 311 311 311 312 311 311 313 314 313 315 319 321 320 319 319 318 319 319 318 319 318 317 317 317 317 317 316 317 317 317 318 317 316 317 316 314 314 315 315 315 315 315 315 315 315 316 317 316 312 310 309
312 312 312 311 311 310 310 310 310 310 310 310 309 309 309 310 310 310 311 310 310 309 308 310 310 312 314 318 323 320 316 318 317 316 316 315 314 313 312 312 313 312 312 313 313 313 315 316 319 319 318 317 317 319 319 317 316 316 316 317 318 317 316 316 316 316 314 316 318 316 315 315 314 314 314 315 316 316 317 317 314 315 316 316 315 313 311 310
313 313 312 312 312 312 312 312 312 312 312 312 311 310 309 309 309 309 310 310 311 309 309 310 311 312 316 320 322 319 315 317 317 315 315 314 314 314 314 313 314 313 313 314 315 315 316 316 317 318 318 318 317 318 317 315 315 316 316 316 317 316 316 316 315 316 314 316 317 314 315 316 314 315 315 314 315 315 316 317 316 315 314 315 315 314 313 310
313 313 313 313 313 313 314 314 314 314 314 314 312 312 311 310 309 308 309 310 311 310 309 311 311 312 317 321 320 316 315 316 316 315 315 314 314 314 314 314 314 313 313 315 316 318 317 316 317 319 319 318 318 316 315 314 315 316 315 316 316 316 318 316 315 317 314 315 317 315 316 318 316 315 314 314 314 314 314 315 316 316 314 314 314 313 313 311
313 313 313 313 313 314 315 315 315 314 314 314 314 313 312 311 310 308 308 309 310 310 310 312 312 313 318 322 317 315 317 316 315 315 314 313 313 313 313 312 313 312 311 312 314 316 316 315 316 317 317 317 318 316 315 316 316 316 315 317 317 317 320 318 316 318 316 314 315 316 316 317 317 316 315 315 314 313 314 314 313 315 315 314 314 314 313 312
314 313 313 313 314 315 315 315 314 313 313 313 314 314 313 312 311 309 308 308 310 312 312 311 313 317 321 321 317 316 316 315 315 315 314 314 313 313 313 311 312 312 312 312 312 314 314 314 316 318 317 316 315 315 319 320 319 317 316 320 322 319 319 318 317 318 317 314 313 315 317 315 316 316 315 315 315 314 314 315 314 313 314 314 314 313 313 313
314 314 314 314 315 315 315 315 314 312 311 312 313 314 314 313 312 310 308 308 310 311 312 312 315 317 318 317 316 316 315 314 315 315 314 314 313 315 314 312 312 313 313 313 313 312 313 314 315 317 317 315 317 318 319 322 323 321 317 318 322 320 317 318 320 318 316 315 312 314 318 317 317 317 316 316 316 314 314 315 315 313 313 313 314 313 313 313
315 315 315 315 315 315 316 315 314 311 310 311 311 312 313 313 312 310 309 310 311 311 312 316 317 314 314 314 315 317 316 314 315 315 314 313 314 316 314 313 312 312 312 312 313 312 313 316 315 316 317 317 320 321 320 321 322 321 319 318 319 319 317 318 322 319 315 315 314 314 315 316 317 318 318 317 316 316 315 315 315 315 313 312 313 313 313 313
315 315 315 315 315 316 315 315 314 311 309 310 311 312 313 313 312 311 310 312 314 313 313 318 317 314 315 316 315 317 317 316 316 315 314 314 315 315 314 313 313 312 313 313 314 314 313 315 317 318 319 317 317 319 320 320 318 319 321 321 319 319 317 317 319 318 315 315 315 314 313 314 314 314 315 315 315 315 316 316 315 315 314 313 313 313 313 312
315 315 316 315 316 316 316 316 314 311 310 310 310 311 313 315 315 314 314 316 318 317 316 318 317 316 317 319 317 317 318 317 317 316 314 314 314 315 314 313 314 314 315 317 316 315 315 316 318 320 319 317 316 316 317 316 314 317 319 319 319 317 315 315 316 318 316 315 315 315 314 313 313 313 313 313 313 314 314 315 315 315 314 314 313 312 312 313
316 316 316 316 316 316 316 316 314 312 312 311 311 313 318 321 319 317 317 318 320 318 318 316 316 317 316 319 319 317 318 316 317 317 314 313 313 313 314 313 315 315 316 321 321 317 317 318 320 321 318 316 316 315 315 315 314 315 316 316 316 315 315 314 316 318 317 316 317 317 315 314 314 314 313 313 313 313 314 314 314 314 314 314 314 313 313 313
317 317 317 317 317 317 317 316 314 313 313 311 312 315 320 318 316 318 316 316 315 314 318 316 313 315 315 317 317 316 318 316 315 316 313 312 312 314 314 313 316 317 316 320 322 319 317 317 319 319 316 315 315 315 314 314 314 315 316 316 316 317 316 315 316 318 317 315 316 316 316 314 314 314 313 313 313 314 314 314 314 313 313 313 314 314 314 313
317 317 317 317 318 317 318 317 315 314 312 311 313 315 315 311 310 312 312 315 314 310 314 316 313 314 313 314 316 315 316 316 316 317 314 311 312 314 313 313 317 318 316 316 318 318 318 318 317 315 315 315 315 315 315 315 315 316 316 317 318 317 317 315 317 319 315 315 320 319 316 314 314 313 313 313 314 314 314 315 315 315 314 314 314 314 314 314
318 318 317 318 318 318 318 317 315 315 313 311 313 313 311 308 307 308 310 316 317 312 312 314 314 315 313 313 315 315 316 314 316 318 315 311 311 314 313 312 315 317 318 316 316 317 318 318 316 314 316 316 315 316 316 316 316 317 317 317 318 317 317 316 317 321 316 315 322 321 316 314 314 314 313 314 313 314 315 315 316 316 316 315 315 316 315 315
319 318 318 318 318 318 318 316 315 315 313 313 313 311 309 308 306 308 313 318 317 314 313 312 311 314 314 313 313 316 316 314 314 316 314 312 312 313 313 312 313 315 316 315 315 316 315 317 320 317 316 317 317 317 317 317 316 317 318 317 317 317 317 315 316 320 320 319 319 317 317 316 316 315 315 315 315 315 315 315 315 315 316 316 316 316 315 315
319 319 319 318 318 319 317 315 315 314 313 314 312 311 310 308 306 308 313 319 318 316 314 311 312 313 313 312 313 315 314 312 314 315 313 312 312 313 313 311 313 314 314 314 315 315 313 317 323 321 319 320 318 318 319 319 317 316 319 319 318 318 318 318 318 317 320 325 321 317 321 320 319 320 317 316 316 316 316 315 315 315 314 315 315 315 316 316
320 319 319 319 318 318 317 316 315 314 314 314 312 312 311 308 307 307 311 318 319 317 314 313 314 314 313 313 313 313 312 312 313 314 312 312 312 313 313 313 313 313 314 314 314 314 314 316 321 322 322 322 321 320 322 321 317 317 322 325 321 320 320 320 321 320 325 330 322 318 323 322 320 321 319 318 319 319 319 317 316 315 314 315 315 315 315 316
322 320 319 319 317 317 317 317 315 314 316 315 312 312 311 309 307 308 312 317 319 318 317 315 313 313 314 313 312 312 313 313 313 312 312 312 312 313 314 313 313 313 314 316 316 317 316 316 320 321 320 322 321 320 323 323 319 319 327 332 326 324 324 323 324 325 328 327 320 319 322 322 320 320 319 320 321 321 320 319 318 317 315 315 316 315 316 316
324 323 321 319 318 317 317 316 315 314 315 314 312 311 310 309 308 310 314 317 320 320 319 316 312 312 314 312 312 312 311 311 314 313 309 310 312 313 314 313 313 314 316 317 317 319 320 319 322 322 320 322 319 318 322 323 320 320 325 329 327 326 326 324 323 326 327 323 321 321 320 321 321 318 318 317 317 318 317 317 318 317 317 316 316 316 315 316
324 324 322 319 318 318 317 316 315 314 314 313 311 311 309 307 308 312 315 316 318 318 316 314 313 313 315 313 313 314 311 310 313 312 308 310 311 311 313 312 312 313 315 316 316 318 321 320 321 323 322 320 321 325 327 324 322 321 322 326 329 329 326 322 320 322 325 322 321 322 320 320 320 317 318 317 316 317 316 316 316 315 317 317 316 316 315 315
324 323 322 319 317 318 317 316 315 315 314 312 311 310 309 310 311 314 317 316 316 317 314 311 313 315 316 314 314 314 313 311 311 310 310 312 312 311 312 311 313 317 318 317 316 316 316 315 316 321 321 321 325 323 320 321 320 319 323 326 330 332 328 326 326 322 322 321 321 323 320 318 319 318 319 317 317 318 315 315 315 314 316 316 314 315 314 315
323 323 322 320 318 318 317 316 316 315 314 311 310 310 311 314 317 317 318 316 315 318 315 312 314 315 314 316 317 314 313 313 311 312 313 313 312 312 313 312 315 320 320 317 317 316 314 313 317 321 320 322 324 318 317 320 318 320 327 326 326 331 329 326 324 320 320 321 320 322 321 318 318 319 319 317 316 316 315 315 316 315 316 315 314 315 313 314
323 322 322 320 320 319 317 317 316 315 315 311 310 314 317 317 317 318 317 316 319 320 318 319 318 316 315 315 317 316 314 315 313 313 315 315 315 314 313 315 316 317 320 320 318 317 316 315 316 318 318 320 321 320 321 321 318 320 326 324 322 325 324 322 322 322 322 320 319 320 319 318 317 317 317 317 317 316 315 316 315 316 317 315 315 316 315 317
323 322 321 321 320 319 318 317 315 315 315 311 313 319 321 320 320 319 316 316 321 320 320 325 321 318 318 317 320 321 316 316 314 311 314 315 316 314 313 316 317 317 320 322 319 319 322 320 315 315 315 318 320 319 320 320 319 319 321 323 322 321 321 322 325 325 321 320 321 318 318 319 318 319 319 316 316 318 317 316 315 316 320 318 315 315 317 320
321 322 321 321 320 320 319 317 316 316 313 312 318 321 319 320 323 320 317 317 318 318 321 325 321 318 319 319 324 323 316 319 317 312 314 315 315 318 317 315 315 316 319 320 320 322 323 321 317 317 318 319 317 315 318 321 319 316 318 321 320 324 329 326 325 325 321 326 327 317 319 324 319 321 324 317 315 316 316 317 316 315 318 317 314 315 320 323
319 320 320 320 319 320 320 318 317 316 313 314 320 319 318 322 323 319 321 321 317 317 319 321 321 320 321 323 327 324 317 320 320 315 317 316 317 322 322 316 313 315 317 318 322 322 319 320 320 317 318 318 315 315 318 322 320 316 319 319 315 324 329 321 321 323 319 324 324 317 321 325 317 317 320 317 316 317 315 315 315 315 316 316 315 318 324 324
317 318 319 319 318 319 319 318 318 315 313 315 318 317 318 323 324 321 321 319 315 315 317 319 322 323 324 326 328 326 319 320 320 318 317 316 316 320 320 317 314 313 315 317 322 321 317 322 322 314 314 315 315 316 318 320 321 318 318 318 316 321 322 318 322 323 317 319 320 319 321 320 317 316 315 315 316 316 315 314 314 315 316 316 315 319 327 324
314 316 318 318 318 319 319 319 317 314 313 316 317 318 319 321 322 321 320 317 314 314 315 318 320 324 326 325 326 327 322 320 320 319 319 318 317 317 317 317 316 313 313 314 320 323 318 319 321 316 315 314 311 313 316 316 318 319 320 319 317 319 321 321 325 325 321 320 320 320 319 316 316 318 317 318 317 316 316 315 313 314 315 316 314 318 325 322
312 315 317 318 318 319 319 319 316 312 313 315 316 319 320 320 319 318 317 317 316 317 317 318 319 321 323 321 323 326 323 321 321 320 322 320 318 319 317 318 318 314 313 313 316 323 321 316 319 317 317 315 310 312 317 314 313 317 321 319 319 322 323 322 323 322 321 319 319 319 318 316 315 315 316 317 318 318 317 315 314 313 313 314 313 317 324 321
312 315 317 317 318 318 319 317 313 311 314 316 316 318 319 319 317 316 316 315 315 316 317 318 318 318 319 318 319 322 321 321 322 320 321 320 319 320 317 317 319 316 312 313 315 318 318 316 318 317 314 315 313 314 320 318 313 314 316 316 318 320 323 323 322 321 321 319 318 318 318 316 317 318 317 316 316 316 315 314 314 313 312 313 313 315 321 321
313 316 317 318 318 318 318 315 312 313 316 317 317 318 318 318 317 317 316 314 315 315 314 316 317 316 317 317 316 317 318 321 322 320 321 320 319 320 319 316 320 319 314 313 314 315 317 318 317 316 313 314 314 315 318 318 317 315 316 318 316 314 318 321 319 319 319 317 316 317 317 316 317 319 318 319 319 316 315 316 315 314 313 313 313 314 317 319
314 316 316 318 318 318 315 313 313 314 316 317 318 317 316 316 317 318 317 314 315 316 314 314 316 315 316 318 317 316 316 318 319 319 319 319 316 317 318 316 318 320 317 315 316 316 319 321 318 317 316 315 316 316 315 316 318 316 316 317 316 314 316 318 317 318 317 316 316 316 317 316 317 319 318 321 323 319 318 317 314 315 314 313 314 313 315 319
313 316 316 317 318 316 314 314 314 314 315 316 317 316 315 316 316 316 316 315 316 316 315 316 316 316 316 317 317 317 317 317 317 317 317 317 316 316 317 315 315 316 317 319 320 317 319 321 319 318 318 317 318 318 315 315 316 316 316 316 316 315 315 317 318 317 316 317 316 316 317 316 316 320 319 319 322 321 319 317 316 317 315 313 314 315 316 318
311 314 315 316 316 314 315 316 315 314 314 314 314 314 315 316 317 316 316 316 317 317 317 318 317 317 318 318 317 318 318 317 316 317 317 317 316 315 315 315 315 315 315 319 320 317 317 319 317 317 318 319 319 318 314 312 312 314 315 316 315 314 314 316 316 315 316 318 317 316 318 316 316 319 317 317 320 321 319 317 317 317 314 313 315 317 320 319
310 312 313 315 314 313 315 318 316 315 314 313 313 314 313 314 314 315 316 317 317 317 317 318 318 318 318 319 318 318 319 319 318 318 318 317 317 315 315 315 316 315 315 318 320 317 316 317 318 319 320 320 320 319 315 312 312 314 316 315 314 314 314 314 315 314 315 316 316 316 316 315 315 316 317 317 317 317 317 316 314 315 314 316 319 321 321 319
309 311 312 314 313 312 315 318 317 317 316 314 314 314 313 313 313 314 315 315 316 316 316 317 318 317 317 318 318 317 318 319 319 319 318 318 317 315 315 316 314 314 316 318 319 316 315 316 316 318 320 320 319 318 319 318 315 314 316 315 314 315 314 314 314 314 315 315 315 315 315 314 313 313 314 314 313 313 314 314 314 314 315 317 319 321 321 321
307 309 311 313 313 313 315 315 316 317 316 315 314 314 314 314 314 314 314 314 314 315 315 317 318 317 317 317 317 317 317 317 318 318 318 318 317 315 316 315 314 315 316 317 318 316 315 316 316 316 318 319 318 317 318 320 315 313 316 316 315 315 314 314 315 315 315 315 315 314 314 315 314 313 312 312 311 312 311 312 312 312 313 314 315 317 319 319
306 308 310 312 313 313 314 315 315 316 315 314 316 316 315 315 314 314 314 315 315 314 315 316 316 316 317 317 317 317 317 317 317 317 316 317 316 316 316 315 315 316 314 315 317 316 314 315 317 316 316 317 317 316 316 317 315 314 316 316 315 315 314 314 315 315 315 316 316 316 315 316 315 313 313 312 312 312 311 311 311 311 311 312 313 316 318 317
304 305 306 307 307 309 312 312 310 309 309 310 312 314 315 315 315 315 315 314 315 315 316 316 315 316 316 316 317 317 317 317 317 316 316 315 315 315 314 314 314 315 313 312 314 316 315 315 316 316 316 316 316 315 315 315 315 314 314 314 314 314 314 314 314 314 314 316 316 315 315 316 316 315 314 313 313 312 312 311 311 311 311 311 312 313 315 314
302 302 303 303 304 305 306 305 304 305 306 307 308 310 312 313 313 313 313 314 314 314 315 316 316 316 316 315 316 316 316 317 317 316 316 315 315 315 315 315 314 314 313 312 313 315 315 315 315 315 315 315 315 315 314 314 314 314 314 314 313 313 313 313 313 313 313 314 314 314 314 315 314 314 313 313 312 312 311 311 311 311 310 311 311 311 311 311
301 301 301 301 301 302 302 301 302 304 305 306 307 309 310 310 311 311 311 312 314 314 315 315 314 314 313 314 315 316 316 316 316 316 316 315 315 315 314 315 316 314 312 311 312 313 313 315 315 315 315 315 315 314 314 314 314 315 314 314 313 313 314 313 313 313 313 313 313 313 314 313 312 312 312 311 311 311 311 311 311 311 311 311 311 310 310 310
299 299 299 300 300 300 301 301 302 302 303 304 306 308 309 309 309 308 307 309 312 312 313 311 309 307 307 309 312 313 311 309 309 310 311 311 312 314 314 314 316 315 311 311 311 311 312 314 315 315 315 315 314 314 314 314 314 314 315 314 314 314 314 314 314 313 313 314 314 314 314 313 311 311 311 311 311 311 311 311 311 311 311 311 311 311 311 310
297 297 298 299 299 299 300 300 300 300 301 302 303 304 305 305 304 304 305 307 308 308 307 305 304 304 305 307 308 306 303 303 304 305 306 307 308 310 312 312 314 314 312 311 311 311 311 313 314 315 316 315 315 315 314 313 314 315 315 315 314 314 314 314 314 314 313 313 314 315 314 313 312 312 312 311 311 311 311 311 311 311 311 311 311 311 310 310
Wind_Speed
12 13 13 14 14 14 14 14 14 14 14 14 14 14 14 14 15 15 15 15 15 14 13 13 12 11 10 10 10 10 10 10 12 11 10 11 10 7 7 6 4 5 4 2 4 4 2 3 7 7 4 2 1 1 1 2 2 3 3 2 3 3 4 5 4 3 2 2 4 4 4 6 3 3 0 1 0 1 3 3 4 3 4 4 8 16 27 33
14 14 14 15 15 15 16 16 16 15 15 15 14 14 14 14 14 14 15 15 15 15 14 14 13 12 11 10 11 11 10 10 10 13 17 18 15 12 10 8 7 6 4 3 4 6 4 2 7 5 2 1 1 1 1 1 1 3 3 2 4 5 5 5 4 4 2 3 4 4 5 6 5 4 2 2 5 3 5 5 3 4 2 5 11 21 29 32
15 15 16 16 16 17 17 17 17 17 17 16 15 15 14 14 14 14 14 14 14 15 15 15 14 14 12 10 11 11 10 8 6 10 14 14 16 17 13 11 8 6 5 4 4 5 4 4 5 5 3 1 3 1 1 2 1 2 3 2 6 7 5 6 5 3 2 3 3 2 3 4 5 4 3 4 6 4 8 8 5 8 7 6 8 17 25 28
15 15 16 16 17 17 17 17 17 17 17 17 17 16 15 15 14 14 14 14 14 14 14 15 14 14 12 10 9 9 7 5 3 5 7 7 9 14 14 12 9 7 6 5 6 6 6 7 4 4 4 3 3 2 2 4 2 2 4 5 7 4 4 7 6 2 1 1 2 1 2 3 5 4 4 4 3 7 9 10 10 12 12 11 9 13 21 22
15 15 16 16 17 17 17 17 17 17 17 17 17 16 16 16 15 14 14 13 13 13 13 14 14 13 11 8 7 6 5 4 3 3 6 5 4 10 13 12 10 8 7 7 7 5 5 5 3 1 1 2 3 1 3 6 4 1 5 8 8 4 5 8 5 1 2 3 1 2 3 5 3 3 5 7 7 10 7 8 11 13 11 14 14 15 17 17
15 15 15 16 16 17 17 17 18 18 17 17 17 16 16 16 15 15 14 14 13 13 13 13 14 12 8 5 4 3 2 1 4 4 6 5 2 8 11 11 10 8 7 7 5 2 2 2 1 0 1 2 3 4 6 6 5 3 6 6 8 7 6 6 4 3 2 1 2 2 3 3 2 5 6 9 15 13 6 7 10 11 11 16 18 15 15 15
14 14 14 15 15 16 16 17 17 17 18 17 17 16 15 15 15 14 14 13 13 13 13 13 13 9 5 2 2 2 3 5 9 8 8 5 3 7 9 10 9 8 8 7 5 3 2 1 1 3 2 3 5 6 7 4 6 7 7 5 7 7 7 8 6 5 4 4 6 2 2 3 5 7 3 9 18 14 8 7 8 7 7 14 16 14 16 17
14 14 14 14 14 15 15 16 16 17 17 17 18 17 16 15 15 15 13 13 13 13 13 13 11 7 3 1 1 3 0 8 12 10 8 4 4 7 10 9 8 8 8 8 8 5 2 2 5 3 2 4 4 4 5 3 2 8 7 5 5 6 7 8 6 6 6 6 5 1 5 7 8 4 5 16 19 10 8 8 9 7 5 11 14 16 16 15
15 14 14 14 14 15 15 15 15 16 17 17 17 17 16 16 15 15 14 13 12 12 12 11 10 6 3 2 3 2 4 7 10 9 6 4 5 8 10 9 8 8 7 8 10 6 3 3 5 4 3 4 3 5 3 1 3 6 6 5 5 6 7 7 7 7 6 5 3 3 10 9 6 3 9 22 19 9 9 9 10 10 7 9 12 15 15 15
16 16 15 15 15 15 15 16 15 16 16 17 17 17 17 16 16 16 14 13 12 11 11 9 8 4 3 3 5 1 6 6 6 6 6 6 7 9 11 10 9 9 8 7 9 8 6 5 4 4 3 3 3 5 2 2 4 3 3 5 7 7 8 6 9 10 6 5 5 8 12 8 3 2 9 19 11 6 10 11 10 9 10 11 10 12 14 15
16 17 17 17 17 18 18 18 18 18 18 18 18 17 16 15 15 16 15 14 12 11 10 8 6 3 4 3 5 4 7 6 7 6 6 7 9 11 12 12 11 11 10 7 9 11 9 7 3 3 2 2 2 5 4 3 2 3 3 7 11 7 8 9 10 11 5 5 8 9 9 8 1 4 15 19 5 4 7 10 10 9 10 10 10 11 11 12
16 17 18 19 19 19 19 20 20 21 22 21 20 18 16 15 14 15 15 14 11 11 9 7 6 5 4 2 5 10 10 9 10 8 7 8 8 10 11 12 12 12 11 7 6 8 8 6 3 3 4 1 1 4 4 2 2 3 2 6 13 7 9 15 12 10 6 4 7 7 5 9 6 12 21 21 8 3 6 8 9 10 11 10 10 9 9 12
15 17 18 19 20 20 21 21 22 23 24 24 23 21 19 18 15 15 15 14 11 10 9 7 7 7 4 2 8 13 15 14 12 10 10 9 8 9 10 12 12 12 13 10 6 5 4 4 4 5 4 1 3 2 1 1 2 4 1 2 9 7 8 13 7 8 8 5 8 9 3 9 11 17 20 16 11 8 8 10 10 9 9 10 9 9 10 11
15 16 18 19 20 21 22 22 23 25 26 26 25 22 21 19 18 16 15 15 12 9 8 7 7 7 4 5 9 11 14 15 14 13 12 10 9 8 10 11 11 11 12 12 9 5 4 3 3 2 2 2 3 4 4 4 1 3 2 2 4 3 8 9 2 4 5 4 9 9 4 11 14 16 13 11 12 10 10 13 11 9 9 8 9 10 11 11
15 16 18 19 20 21 22 23 25 27 27 28 26 23 21 19 19 18 16 16 11 8 7 7 9 6 1 6 9 8 11 12 14 17 13 12 11 8 8 10 9 8 8 9 7 5 5 3 3 1 3 1 0 2 4 4 3 1 1 4 3 4 8 11 5 6 7 4 6 9 4 11 16 16 11 9 10 9 10 13 11 10 10 9 9 9 11 11
15 16 18 19 20 21 23 24 27 29 28 29 28 25 21 19 19 18 18 15 11 8 7 6 9 7 1 4 4 5 9 9 12 15 13 13 12 8 7 8 6 6 6 5 4 4 6 4 2 2 1 1 2 2 2 4 5 2 3 6 6 5 6 8 7 5 8 4 4 9 6 8 11 11 9 7 8 9 10 12 11 11 11 11 10 9 10 11
15 16 17 18 20 21 23 25 28 29 29 29 29 26 22 19 18 18 15 9 6 8 9 3 4 5 2 2 2 4 8 10 11 13 14 14 12 9 9 6 4 6 4 3 3 3 4 2 1 1 0 2 3 5 3 3 6 4 3 5 6 7 5 5 7 4 6 8 7 11 9 11 13 9 9 7 5 7 9 12 12 10 9 10 10 10 11 11
14 15 16 18 19 21 23 25 27 28 28 28 27 26 22 18 15 12 5 5 4 3 5 4 0 2 4 5 6 5 6 10 12 14 15 14 12 12 10 4 3 6 4 2 1 3 2 0 2 1 2 3 4 5 4 7 8 5 5 4 5 7 7 9 8 2 6 6 7 8 9 15 19 14 12 13 7 5 9 10 10 11 11 11 10 11 12 11
14 15 16 18 19 21 22 24 27 27 27 26 25 22 16 10 6 2 4 8 6 4 2 5 5 3 4 6 6 4 5 9 11 12 14 14 13 12 8 3 4 6 4 1 2 3 4 1 3 2 4 6 7 8 11 13 11 8 8 6 6 7 7 11 11 6 8 5 6 10 12 15 19 18 16 16 12 9 10 8 8 10 10 11 10 11 11 12
14 15 16 17 18 20 22 24 26 24 22 24 24 17 7 4 3 1 2 2 5 5 3 4 8 5 4 2 4 5 5 8 8 8 13 15 14 10 5 1 4 3 3 4 3 3 5 4 3 6 10 12 10 12 15 15 11 9 9 9 9 9 10 13 12 7 8 6 7 13 15 16 18 20 18 14 11 10 11 11 11 12 12 13 13 13 13 14
15 15 16 17 18 20 21 23 24 20 19 21 19 10 2 2 2 3 3 5 11 14 12 9 11 11 8 2 7 10 5 4 5 6 13 15 14 10 4 3 4 3 6 5 2 1 4 6 8 13 16 13 10 12 13 12 11 11 10 10 10 8 12 14 10 7 6 5 8 11 14 16 17 20 18 12 9 11 14 13 14 15 15 14 14 16 15 15
15 15 16 16 17 20 19 22 21 16 18 20 14 7 3 3 2 2 2 5 10 13 14 12 13 12 11 10 9 10 3 5 7 5 13 14 10 8 4 5 7 5 5 4 2 3 4 7 13 16 14 9 8 8 9 11 11 10 8 8 8 6 10 12 9 6 4 5 7 9 12 13 15 18 17 12 10 12 14 15 16 16 15 14 14 16 16 15
15 15 16 16 18 19 18 22 17 11 19 19 10 5 3 6 5 2 1 2 8 9 8 11 13 9 11 14 10 11 6 10 10 7 17 16 6 6 6 7 9 4 6 8 8 7 6 8 13 14 9 9 11 9 8 8 7 9 8 8 9 7 7 9 6 4 3 4 5 7 9 9 10 13 15 15 14 13 14 16 16 16 15 16 17 16 15 15
15 15 15 16 18 17 18 21 12 10 20 14 5 5 8 9 6 2 1 2 5 7 8 12 12 8 13 14 11 14 9 9 7 6 19 19 5 3 5 8 7 4 7 13 14 13 12 8 9 11 11 12 13 10 8 7 8 11 10 9 11 10 11 12 7 4 3 4 4 5 9 8 8 13 16 14 13 13 14 15 16 16 17 16 17 17 17 15
16 16 16 16 17 17 19 16 7 13 19 7 3 7 12 11 6 4 2 3 4 4 6 8 6 7 14 12 12 13 5 5 5 5 17 19 9 5 4 5 5 8 12 13 12 12 13 8 7 10 12 13 12 10 8 8 9 11 9 11 14 13 13 13 9 6 5 6 4 3 7 8 8 13 16 10 8 10 10 12 16 16 16 15 15 17 17 13
17 17 16 15 15 17 16 7 7 17 13 2 4 11 13 11 7 4 2 2 4 3 2 3 3 5 8 6 8 6 4 5 3 4 14 15 10 5 2 3 2 7 10 7 6 5 8 8 9 10 11 11 10 8 8 11 9 10 6 11 13 11 10 11 8 4 3 6 3 3 3 8 6 8 11 8 7 11 9 9 13 13 13 14 13 15 14 11
18 18 17 15 13 14 10 5 11 14 4 2 11 13 13 10 5 4 1 3 4 3 3 1 0 2 3 2 5 7 1 5 2 4 7 6 6 3 3 6 3 4 5 3 3 4 5 8 9 13 12 8 8 8 9 11 8 8 4 8 9 9 10 8 6 5 4 4 4 2 3 7 11 7 9 10 10 11 11 10 12 11 12 14 14 13 12 11
17 18 18 15 11 8 7 9 12 8 2 8 13 12 11 7 3 2 2 3 4 3 2 2 0 1 0 1 2 5 2 2 3 1 2 1 2 2 5 8 5 4 4 5 6 5 3 7 10 12 9 7 9 10 9 11 8 6 3 6 6 6 6 3 3 5 2 4 4 5 6 4 14 7 9 12 12 11 13 14 14 13 14 15 16 14 12 11
21 18 17 15 10 7 8 9 9 6 7 10 11 9 7 5 2 4 2 4 3 1 1 0 1 1 1 1 2 2 2 3 1 3 4 1 1 2 4 6 3 4 4 4 9 6 1 5 7 8 7 9 7 4 7 10 8 4 5 4 4 3 2 4 1 1 3 5 7 7 8 4 13 7 7 7 8 10 12 13 14 14 14 15 16 14 11 9
23 22 18 13 9 9 7 7 9 7 7 8 9 7 3 2 2 3 3 5 2 2 0 1 1 1 4 4 3 4 2 1 1 2 3 0 2 4 1 2 1 2 5 4 7 7 1 1 2 4 5 6 4 3 2 3 3 2 6 5 6 5 5 4 1 4 2 8 6 10 12 8 9 6 6 5 7 11 11 9 11 11 12 15 15 11 11 10
22 23 20 16 13 9 5 5 8 7 5 5 7 4 1 1 4 2 7 3 1 2 1 0 2 2 4 5 2 2 3 1 1 2 1 1 2 3 1 0 2 2 4 5 7 8 3 1 2 3 2 4 6 4 3 4 3 5 5 4 3 4 4 5 4 4 2 10 5 13 15 12 10 5 2 3 5 10 11 9 11 12 13 15 12 10 11 10
20 21 22 22 18 13 10 6 6 6 3 4 5 3 2 2 1 6 6 2 1 3 3 2 3 2 4 3 2 1 4 1 2 5 4 3 2 3 3 4 4 2 3 5 5 5 6 6 5 1 1 5 6 3 4 6 3 4 5 5 1 4 3 3 3 1 5 8 4 9 9 9 13 8 4 8 6 7 9 9 12 13 14 15 12 11 12 8
19 20 22 25 23 19 17 12 9 8 3 3 4 3 4 2 5 6 3 1 3 2 2 2 4 4 3 1 2 3 3 2 4 4 3 4 3 4 5 5 4 2 4 5 2 3 5 5 5 3 3 5 8 6 3 2 3 6 6 6 5 3 1 3 4 3 5 8 5 4 5 5 8 5 9 15 14 12 10 10 13 13 13 14 13 12 10 7
17 18 21 25 26 24 21 17 16 13 5 5 4 4 4 4 5 1 2 5 5 3 1 1 2 3 3 2 5 5 3 4 5 5 3 3 2 4 5 7 7 3 1 2 2 3 4 8 6 9 4 7 13 13 11 5 5 7 6 6 5 5 4 4 5 5 5 7 5 3 4 4 3 3 9 14 14 13 10 11 12 12 12 11 9 9 7 6
15 16 19 24 25 26 24 21 21 17 9 6 4 3 4 6 4 1 3 5 5 5 5 3 2 3 4 4 4 4 5 5 3 6 4 4 4 5 4 6 9 6 3 3 3 4 5 10 8 8 3 10 13 11 8 7 1 4 4 4 4 5 6 4 5 5 2 4 6 3 4 6 4 6 9 8 9 9 10 12 11 11 12 9 8 9 7 6
12 12 16 20 23 26 27 25 24 20 12 6 3 3 6 7 4 3 3 4 2 2 6 7 0 3 4 2 3 5 5 4 2 4 3 4 5 6 4 4 9 11 9 6 3 3 4 7 3 3 2 4 5 2 4 4 3 3 4 4 5 4 6 4 5 2 1 5 7 3 5 7 5 8 9 7 10 9 8 10 10 11 13 11 10 9 7 7
11 9 10 16 21 25 26 28 27 22 12 5 4 6 7 6 6 6 3 2 2 1 3 4 2 3 4 2 3 4 3 3 3 4 2 3 4 6 7 5 7 14 15 11 5 4 5 6 2 4 1 2 1 1 2 2 3 6 4 6 3 3 2 3 2 3 1 6 7 3 7 9 7 9 4 2 4 8 8 10 11 13 14 12 10 8 7 7
9 7 10 16 22 23 26 30 29 19 8 4 8 10 7 4 4 7 6 3 4 4 3 4 4 4 4 3 3 2 3 3 3 4 3 3 4 5 7 5 6 14 19 15 6 3 3 5 4 3 2 3 2 1 2 5 2 4 3 3 4 1 2 3 3 3 5 7 7 8 11 11 10 9 5 2 7 10 11 12 12 13 13 11 10 9 8 7
6 4 7 9 14 20 27 32 25 12 4 5 8 9 5 3 4 5 5 3 2 4 6 8 7 5 6 8 6 2 3 4 3 2 3 3 4 4 6 5 6 11 18 16 9 5 3 5 6 1 2 1 2 1 4 3 1 2 2 2 1 2 4 3 4 3 5 8 8 10 12 11 9 6 5 9 11 11 11 11 11 13 13 12 10 10 9 8
3 3 4 3 7 19 30 27 15 6 5 5 7 8 4 2 3 4 5 4 3 3 5 7 7 7 8 9 8 4 3 4 3 2 3 3 4 4 3 3 3 6 11 11 9 6 2 4 7 1 1 2 3 5 8 8 6 3 1 3 3 2 2 1 2 2 4 7 7 7 10 11 7 4 6 9 9 9 11 10 10 11 12 11 11 11 9 8
3 3 3 5 12 24 26 15 5 4 5 4 6 8 6 3 2 3 5 4 4 3 2 3 4 5 5 5 6 4 2 3 3 3 3 3 5 5 1 3 3 3 1 3 4 5 2 4 7 3 1 6 9 7 10 13 11 9 7 7 7 6 3 3 6 5 4 5 6 7 10 13 6 4 4 6 6 8 9 10 10 10 11 12 11 12 9 7
4 5 2 6 21 30 21 5 4 5 4 4 4 4 3 2 3 4 5 4 4 3 2 2 3 4 5 5 6 5 3 4 6 5 5 6 8 8 5 7 7 8 5 1 4 4 2 2 5 6 5 8 10 4 7 12 10 7 6 6 7 7 7 8 10 7 3 3 4 6 11 14 7 4 3 4 6 6 7 8 8 9 11 13 12 10 9 8
3 4 1 5 25 29 12 2 5 4 4 3 1 2 2 2 3 4 5 6 5 5 3 3 4 5 7 6 5 5 5 5 7 9 9 9 10 12 13 13 10 7 5 4 4 4 2 1 5 9 5 5 8 5 0 2 2 3 4 4 6 7 8 10 8 5 5 5 6 7 11 13 8 2 3 6 5 6 7 8 10 11 10 10 10 9 8 9
3 3 2 8 25 22 6 4 6 5 6 4 4 5 3 1 4 6 8 7 6 4 4 5 6 7 7 6 6 8 8 6 8 10 9 8 9 12 14 16 14 6 0 1 0 2 3 3 5 7 6 4 6 6 5 2 2 3 4 5 8 9 9 8 4 3 7 10 11 11 10 11 9 4 5 7 4 5 7 7 7 8 7 7 7 7 7 8
2 3 2 8 19 15 5 5 6 6 7 8 10 10 7 4 6 11 13 10 7 6 5 4 5 6 6 6 7 9 11 9 7 7 7 6 7 10 12 15 14 10 7 9 8 2 2 2 3 5 7 6 6 7 7 4 2 1 3 7 10 11 11 10 6 6 10 11 13 13 10 10 11 11 12 13 10 8 8 8 7 5 6 7 6 7 7 7
2 3 3 4 8 7 5 5 7 8 7 8 9 8 11 11 7 9 12 10 10 11 9 4 1 2 5 8 10 11 12 12 10 6 6 7 7 6 9 12 13 13 14 13 11 4 1 4 7 9 10 9 11 12 8 3 2 3 4 7 8 7 8 7 6 9 9 9 11 13 13 13 11 14 19 20 18 16 13 12 11 8 9 11 9 8 9 9
2 3 2 1 2 4 6 6 7 7 5 6 6 5 12 15 9 6 9 9 10 10 8 7 7 8 8 10 12 13 13 14 13 12 11 11 10 7 6 6 7 9 9 8 9 6 3 6 13 17 18 17 16 17 13 9 10 11 10 11 11 9 9 8 9 11 9 9 12 12 12 14 11 13 21 24 24 22 17 14 13 11 12 11 8 8 9 10
3 2 2 3 2 2 4 3 3 4 4 3 3 3 9 13 11 7 6 6 8 7 4 6 11 15 16 15 13 11 11 12 12 13 13 12 11 10 9 9 11 11 7 4 6 6 4 9 14 16 20 21 18 17 17 16 16 16 16 17 18 17 15 14 15 16 14 13 14 12 14 18 16 17 22 25 27 26 20 15 13 13 14 11 8 8 9 9
2 2 3 3 2 4 5 4 6 6 5 4 3 3 4 7 8 7 3 3 4 5 7 10 13 15 18 19 16 12 12 12 13 13 12 11 12 10 9 10 12 11 10 7 5 5 3 6 11 15 18 19 18 19 20 20 19 19 19 19 19 19 20 20 20 21 21 21 20 20 24 25 20 19 23 24 25 23 19 16 16 19 21 18 13 14 14 13
2 2 2 3 2 5 6 5 5 6 5 5 4 4 4 5 7 7 5 4 5 3 5 11 12 10 11 13 14 15 15 14 16 14 10 9 9 7 6 8 7 4 6 7 5 5 5 7 10 12 12 13 17 20 21 21 21 21 22 21 20 22 23 24 22 20 21 23 24 26 26 22 18 19 23 23 22 20 19 21 24 24 25 21 18 19 19 16
4 4 3 3 3 5 4 2 2 3 5 5 4 3 4 5 6 8 7 7 9 7 4 6 10 10 10 10 10 12 11 11 14 14 12 11 8 5 4 5 4 3 2 4 3 4 6 6 7 8 7 9 15 20 22 22 22 22 21 21 23 24 23 22 21 20 21 23 25 24 19 16 17 20 21 22 22 23 24 26 26 25 25 23 20 20 18 16
4 5 4 2 3 5 4 2 2 3 5 5 4 5 6 7 8 8 6 5 6 7 6 8 11 9 9 11 10 10 12 13 13 14 13 13 12 10 9 8 8 7 4 3 2 3 5 5 5 6 7 8 13 19 20 18 15 14 16 23 28 28 25 23 22 23 24 22 19 17 16 17 18 18 19 20 23 24 24 23 23 23 23 21 18 16 15 16
Wind_Direction
3 4 3 3 2 2 2 2 2 3 5 5 6 5 5 4 3 1 359 356 354 354 355 350 350 346 336 327 321 313 305 291 285 278 254 259 268 259 262 260 246 248 249 231 183 178 165 187 225 223 209 224 181 193 217 190 99 63 93 160 238 229 218 209 219 238 199 227 242 248 202 168 237 267 291 333 294 188 227 253 252 269 14 66 134 140 148 155
356 356 356 356 355 356 356 356 356 356 359 359 0 360 360 1 359 358 357 355 352 350 350 348 347 343 339 332 322 320 315 302 293 276 264 265 261 253 254 251 253 255 242 206 183 182 162 203 240 219 144 165 238 176 181 240 112 121 151 188 231 215 226 224 228 253 251 219 207 231 214 183 206 205 136 242 260 248 227 255 230 230 338 76 125 138 148 155
353 353 352 352 351 352 351 351 351 351 353 354 355 355 355 355 354 356 355 354 352 350 348 346 344 340 340 333 325 325 320 318 303 275 281 278 253 244 241 239 245 247 238 199 176 196 209 272 253 193 145 240 251 141 152 264 190 185 164 218 244 224 248 271 266 252 245 224 184 260 224 199 226 177 139 219 253 247 223 234 200 216 222 162 149 147 153 160
351 350 350 350 348 347 347 347 347 347 348 349 350 350 349 349 349 350 350 351 350 350 348 344 341 337 337 336 331 325 330 342 295 277 320 314 254 237 229 231 233 232 234 202 196 216 244 294 302 165 158 253 273 112 169 227 206 195 165 209 241 229 280 277 271 249 146 85 134 293 340 278 252 165 167 180 240 259 231 226 204 215 213 176 172 166 165 167
348 347 347 346 344 343 343 343 343 344 344 344 345 345 345 344 345 345 344 344 345 347 345 341 337 333 335 339 337 331 357 11 296 317 352 346 268 233 225 227 226 223 219 207 213 221 254 287 336 62 151 244 282 89 217 220 176 213 214 220 241 250 284 273 264 234 126 74 74 315 308 267 250 177 194 173 218 246 219 219 212 217 211 176 177 178 173 175
344 344 345 342 341 340 340 340 341 341 340 340 340 341 342 341 341 342 341 340 339 341 341 339 335 334 338 338 333 345 43 306 277 318 335 343 278 229 218 219 220 218 210 204 206 202 252 269 46 41 197 242 245 223 245 230 165 228 252 232 242 241 255 268 269 247 182 115 230 246 247 258 298 267 229 195 228 237 195 192 201 219 216 182 175 173 177 184
344 344 344 341 339 337 338 339 338 338 336 335 335 336 338 337 338 338 339 338 336 337 338 337 333 331 338 340 323 38 95 253 273 288 298 308 261 224 210 213 214 211 205 192 181 178 200 208 220 198 191 253 236 225 257 262 177 213 257 262 258 249 248 267 273 235 188 199 225 219 318 283 250 262 278 233 240 237 221 217 203 215 196 172 171 175 187 191
344 344 344 341 337 337 338 337 337 336 333 331 330 331 333 333 333 332 335 335 333 335 336 332 329 326 312 204 154 6 343 251 272 278 272 265 234 214 204 208 209 211 207 196 188 178 164 202 229 208 227 251 237 248 271 315 206 217 244 268 279 275 270 286 289 242 216 224 225 255 288 251 230 264 305 260 252 239 227 239 235 228 153 157 178 188 193 197
345 344 344 341 338 338 338 339 339 334 331 329 327 328 330 330 328 326 328 329 329 329 331 330 323 315 268 188 103 350 263 246 269 268 249 234 218 207 203 204 205 208 209 213 208 194 164 206 228 199 209 243 252 274 278 336 256 228 234 266 296 291 287 300 296 263 243 241 186 219 263 253 243 286 283 261 254 242 226 232 235 228 203 182 187 192 195 201
348 347 347 345 343 342 343 343 340 335 331 327 325 326 326 326 323 320 320 321 323 322 326 324 312 303 234 183 105 285 262 256 267 253 234 224 211 207 206 207 207 205 208 222 221 213 195 203 220 175 189 244 253 269 276 211 237 244 261 285 281 280 287 285 281 272 258 253 190 208 257 270 254 214 266 263 247 212 219 233 233 217 221 209 194 197 197 202
350 350 349 348 348 348 349 347 343 339 334 329 326 324 322 321 317 314 313 312 313 314 317 313 300 258 203 165 137 228 260 263 261 247 227 218 211 213 213 213 212 207 211 229 238 234 223 215 180 118 204 254 262 290 291 244 256 297 335 313 285 293 302 274 270 272 262 258 203 192 261 286 261 191 247 256 237 148 205 234 237 217 226 218 203 205 197 207
349 350 349 349 350 350 352 348 345 341 337 334 329 324 321 315 311 306 304 303 301 303 301 296 276 218 191 166 208 241 260 259 255 248 230 219 215 217 216 217 219 215 213 222 248 247 235 226 155 150 240 261 304 298 275 263 332 296 20 315 288 324 305 271 268 258 226 225 180 144 298 284 236 222 242 252 257 257 237 244 242 225 229 224 215 211 205 215
347 348 347 347 348 350 351 348 345 341 337 334 330 327 322 316 310 297 292 292 287 288 284 273 246 205 183 243 243 247 253 249 249 246 232 223 217 218 217 218 224 224 220 221 237 249 237 227 175 190 236 227 265 275 262 334 351 284 39 265 283 336 297 267 258 238 221 198 148 124 285 269 245 239 243 254 257 254 250 248 242 232 232 228 225 219 219 220
345 345 345 346 348 350 350 349 345 340 336 332 328 326 321 317 311 296 284 280 278 275 266 246 215 187 172 249 261 254 245 240 238 237 228 219 210 211 214 216 222 224 224 228 233 244 239 219 159 179 264 196 243 306 343 340 315 280 306 247 266 301 277 272 231 189 203 195 149 135 236 259 262 258 246 249 250 236 238 246 239 233 234 230 229 225 228 225
342 342 344 345 347 350 350 350 346 341 337 331 327 325 320 315 309 299 284 271 268 257 238 213 192 164 96 268 265 254 234 228 231 232 229 218 208 206 208 205 208 207 212 224 228 231 211 175 130 150 276 256 222 312 327 328 297 252 260 279 269 208 261 283 269 191 193 223 156 145 216 259 263 268 255 241 241 223 226 244 241 234 234 233 234 228 233 235
338 341 343 344 347 348 349 349 347 343 338 331 328 325 321 314 305 297 285 272 262 235 201 190 192 179 318 274 255 245 221 219 228 227 221 215 212 209 190 181 181 181 190 208 203 192 166 140 143 166 214 278 135 141 18 344 304 278 199 250 263 230 263 291 288 230 181 165 184 189 215 258 261 271 272 253 238 222 222 242 243 237 235 232 237 232 233 241
335 338 340 343 344 345 346 347 348 344 338 332 329 326 322 315 301 292 287 271 249 209 186 190 193 185 261 269 262 258 212 207 213 206 202 205 206 189 165 156 170 172 159 161 167 158 148 136 188 161 171 234 154 122 66 293 271 287 222 233 255 247 258 273 292 306 151 152 204 219 228 251 257 271 290 286 247 216 219 236 240 238 238 234 236 236 236 239
331 333 336 340 340 342 344 346 349 344 337 332 330 327 320 309 297 291 267 175 132 137 204 265 212 177 256 236 231 229 181 193 196 192 197 196 189 179 166 156 151 143 107 64 177 150 166 192 138 168 293 226 174 138 171 233 237 239 223 228 254 250 252 256 268 256 160 175 207 221 236 250 259 265 271 272 259 224 225 232 239 239 239 237 236 236 238 239
326 329 332 335 337 339 341 346 349 344 338 335 335 332 320 309 306 305 137 143 124 103 220 231 181 178 252 228 212 183 155 175 179 188 195 186 182 179 177 175 126 127 113 93 236 176 161 86 90 157 243 225 201 182 203 226 228 229 235 239 247 251 257 256 263 226 179 193 212 217 234 242 254 259 254 259 258 249 245 240 245 246 244 244 240 237 238 240
322 325 328 331 334 336 338 346 348 346 347 346 346 346 341 356 352 14 73 174 216 238 265 207 194 225 285 244 157 151 157 169 183 200 191 182 173 163 171 163 91 120 170 161 195 190 154 166 177 198 225 225 208 201 216 230 234 245 254 256 253 255 263 259 266 251 185 194 221 218 235 239 248 257 251 250 255 256 253 243 241 242 245 247 244 244 242 241
317 319 322 326 329 332 337 345 347 352 0 0 1 7 63 53 324 299 332 278 254 254 264 245 217 234 261 238 159 164 162 197 233 216 187 178 158 151 184 159 130 207 204 164 183 230 161 188 211 216 226 228 213 208 220 232 237 246 249 257 259 249 262 260 258 257 192 198 242 230 243 248 246 256 257 248 237 246 250 244 242 240 241 247 249 249 247 246
311 311 317 320 323 328 334 343 345 356 4 5 17 41 92 34 326 281 305 287 276 255 254 257 243 244 254 257 213 178 166 239 247 220 180 173 161 178 191 159 179 204 170 150 233 252 208 220 225 223 229 239 232 215 217 229 230 240 244 253 260 248 269 266 245 254 204 190 248 242 246 252 249 255 261 254 234 235 242 243 247 246 244 247 248 249 247 249
302 304 310 311 317 323 331 340 340 352 358 358 18 47 21 355 342 329 184 270 289 260 243 243 240 238 239 252 227 180 206 229 232 221 179 170 177 196 172 178 198 172 143 181 206 218 222 230 226 222 225 234 242 232 223 243 240 236 240 247 257 248 264 267 244 255 225 208 251 258 258 255 255 266 263 254 245 240 243 245 249 252 250 248 247 250 249 247
294 297 301 303 311 316 328 337 336 347 348 350 26 25 0 349 339 344 238 251 280 257 239 227 223 220 223 233 199 184 222 223 213 215 179 172 161 168 183 189 183 172 194 201 204 221 236 229 204 206 214 222 238 237 220 246 254 240 232 233 249 247 245 255 270 304 292 280 281 278 286 268 232 250 258 252 247 244 245 246 250 253 251 250 251 254 252 245
290 290 292 299 304 310 326 335 341 343 341 356 68 359 354 347 333 353 346 281 281 274 269 235 212 223 223 215 180 183 247 239 216 199 176 178 166 149 210 185 168 213 215 209 212 232 246 227 171 191 216 220 230 236 212 214 249 256 227 217 236 244 246 256 281 319 313 294 276 220 280 277 207 221 245 252 246 245 240 237 242 247 250 251 251 253 250 242
286 286 289 294 299 314 329 335 330 337 341 38 9 341 344 343 327 335 15 312 280 256 264 213 182 212 213 191 160 144 345 281 249 153 168 185 185 159 198 185 201 229 205 202 226 238 241 212 175 193 215 214 218 237 214 199 235 267 229 207 225 236 248 257 268 291 262 263 271 147 230 276 247 212 233 237 233 243 241 231 237 240 245 246 243 247 248 239
285 283 283 286 295 315 330 320 318 333 356 326 328 329 333 337 321 311 2 330 286 188 149 228 194 164 181 180 142 127 250 268 36 94 159 187 203 170 215 209 210 221 168 146 253 242 212 195 191 207 214 208 215 237 216 187 215 261 216 190 206 221 241 245 230 226 234 269 284 163 152 281 279 234 203 207 214 235 244 240 242 240 240 244 243 243 242 238
291 285 279 278 282 295 307 306 310 321 313 316 325 328 334 337 319 358 64 286 280 124 122 250 291 73 110 313 175 147 216 294 77 324 337 30 208 149 225 223 192 197 161 154 228 254 179 184 202 204 204 210 218 227 197 167 206 246 176 170 178 195 220 185 182 225 291 335 276 203 143 271 279 245 181 201 209 221 235 235 238 237 235 242 246 244 241 239
293 288 280 277 268 258 281 290 284 289 305 323 333 331 341 335 330 58 98 250 276 64 59 187 165 290 30 37 255 205 14 20 129 279 337 7 271 85 211 228 182 233 255 198 231 262 188 201 197 170 185 218 216 212 172 167 214 225 115 95 70 69 54 76 137 167 37 306 255 194 155 213 278 264 163 186 204 211 227 229 231 232 230 238 245 246 246 241
287 284 275 265 251 242 248 257 258 275 301 322 333 327 323 317 47 71 240 247 298 279 242 83 221 196 107 122 254 251 234 320 22 346 353 72 339 14 243 246 100 248 293 298 264 260 253 306 194 163 191 203 148 95 120 165 205 111 87 54 29 12 23 48 21 72 50 276 236 177 176 189 267 278 147 172 202 200 209 218 231 235 235 242 246 251 252 242
284 282 269 248 239 233 205 232 251 251 275 315 337 334 295 19 73 156 237 241 338 260 135 115 249 106 138 172 230 221 192 262 83 134 224 154 16 20 53 272 80 47 325 302 279 266 264 271 223 231 188 125 100 80 6 16 67 88 87 73 24 330 10 25 355 62 214 263 211 177 184 188 232 262 151 235 222 195 199 202 220 230 236 244 246 249 253 245
276 278 268 250 241 229 213 230 223 201 248 339 14 8 57 47 223 221 244 347 333 226 164 190 198 162 205 226 308 186 166 228 177 170 190 164 170 194 202 209 161 85 290 251 267 284 265 229 203 263 253 141 118 87 353 352 48 101 104 103 83 295 344 356 310 118 223 256 225 186 183 203 239 252 250 272 268 207 205 204 212 219 230 242 241 238 244 234
271 271 266 252 241 230 225 223 200 193 212 93 85 39 68 121 243 225 210 249 241 211 153 173 177 167 161 89 278 212 180 233 187 177 197 158 183 239 262 251 198 212 250 221 261 298 284 272 179 163 280 179 152 170 231 272 177 159 146 142 167 205 242 260 255 257 256 263 256 196 178 240 274 266 226 239 243 225 207 209 219 216 224 236 234 237 239 212
275 265 259 252 242 236 231 218 210 213 195 128 110 63 104 205 255 250 164 223 250 280 321 56 129 169 165 195 222 186 188 243 173 160 194 143 170 243 254 245 221 225 226 190 264 188 249 290 191 168 225 183 177 204 207 163 155 181 155 147 181 178 172 215 234 239 264 284 277 183 166 225 272 252 215 221 237 236 212 213 222 223 234 244 245 254 248 201
286 265 258 251 238 233 229 219 220 218 186 129 95 95 172 222 253 271 226 240 268 295 304 334 83 181 237 253 241 202 209 244 163 149 184 174 194 214 203 213 205 191 155 195 251 173 217 271 220 174 176 165 182 216 189 120 110 216 125 119 218 197 183 226 256 221 201 304 283 204 206 233 233 251 241 230 252 248 221 223 224 231 246 252 252 251 237 201
301 281 260 243 231 230 225 220 219 207 177 133 112 173 216 226 206 192 223 223 220 324 322 317 239 187 257 276 260 241 214 233 196 163 203 202 209 211 194 202 194 190 190 195 225 189 223 279 234 157 18 152 179 238 156 149 205 185 134 185 209 158 169 226 282 280 128 269 270 215 234 277 307 278 251 224 242 244 231 232 225 230 238 238 238 233 217 205
317 297 256 236 234 233 227 220 209 190 165 143 177 208 224 228 205 201 225 213 193 29 352 310 248 205 251 255 250 242 209 225 198 173 212 211 219 211 201 218 189 190 205 211 226 222 223 274 254 162 244 277 210 44 353 290 148 133 180 209 163 69 127 171 235 315 300 252 263 242 248 278 291 280 303 68 238 247 246 236 225 229 234 236 240 231 219 215
317 292 263 250 242 236 228 215 196 172 147 167 212 224 222 218 205 207 230 256 264 271 264 257 242 220 243 264 272 246 200 220 177 176 221 218 232 196 180 221 201 192 209 213 230 271 219 252 269 159 187 300 15 83 304 320 79 131 216 204 113 141 219 159 169 229 244 246 266 272 272 274 257 256 294 298 231 226 228 227 225 229 232 236 243 235 224 219
298 280 270 254 240 234 219 200 179 156 149 189 215 229 219 218 223 213 225 224 231 244 236 240 238 230 248 260 265 256 197 210 186 210 234 216 240 197 162 216 219 205 212 203 206 242 206 229 253 212 180 267 16 189 201 229 319 40 349 340 30 175 182 183 174 171 223 241 261 278 282 277 250 228 225 230 229 221 219 224 229 231 231 233 236 234 221 205
240 257 258 174 195 211 197 178 160 160 199 198 214 227 227 253 251 238 234 209 192 218 223 229 232 234 250 259 262 262 228 219 209 224 228 224 254 241 185 220 234 223 217 203 212 232 205 238 239 246 15 212 216 206 183 185 198 187 207 247 258 209 147 237 235 162 205 230 237 253 269 268 247 183 196 218 225 216 206 210 225 231 234 234 235 237 224 201
208 242 237 159 182 186 171 155 158 193 208 226 231 232 238 257 255 259 258 232 221 257 264 235 232 243 261 268 268 275 272 258 258 250 243 251 260 260 341 30 1 330 265 189 231 226 185 240 234 208 202 229 236 217 187 191 191 179 193 208 209 201 183 236 244 220 204 224 221 220 250 262 246 152 187 210 206 214 204 200 218 228 231 235 238 240 229 208
242 234 204 169 182 173 155 155 212 181 208 231 231 237 234 242 239 241 258 249 222 236 297 291 241 244 255 254 257 269 281 274 266 255 248 252 256 265 321 17 18 7 4 307 252 239 189 202 237 236 227 244 265 250 191 208 206 191 208 216 210 203 198 221 235 232 230 241 232 229 247 258 247 147 186 214 192 210 208 194 213 230 229 231 232 237 241 236
239 241 346 181 181 169 150 219 207 191 229 225 271 254 200 214 240 230 236 232 218 214 221 228 220 227 237 237 243 253 255 248 240 239 248 256 260 265 279 297 315 350 5 334 317 317 341 64 242 253 266 294 302 319 315 215 200 231 262 242 226 222 221 234 240 243 245 222 213 232 243 254 258 193 255 267 226 218 221 205 216 232 235 237 234 234 242 246
249 253 306 201 187 176 166 224 203 220 231 233 267 245 222 238 234 240 240 218 201 212 226 226 218 221 228 225 226 227 224 234 238 233 235 242 247 252 262 275 280 287 305 195 321 332 309 301 272 262 264 285 298 297 289 281 144 206 243 233 237 241 243 254 269 266 249 232 226 238 245 252 262 258 269 285 284 257 255 242 234 238 247 264 263 257 257 258
286 252 258 203 191 189 213 222 218 231 221 229 242 236 242 244 212 225 238 233 218 212 225 235 222 225 228 220 229 228 217 226 238 226 214 221 242 251 249 250 251 247 222 187 162 143 272 257 279 262 244 242 248 251 250 232 177 193 229 232 237 237 235 244 253 244 243 237 235 244 251 257 275 293 286 281 285 284 280 282 280 264 258 267 267 266 269 268
305 255 250 204 193 209 237 233 238 238 221 225 234 230 233 239 231 218 224 236 234 222 231 252 236 248 233 221 239 248 236 234 234 226 222 224 234 247 244 242 242 246 241 213 186 175 171 192 219 232 234 238 244 249 249 226 215 230 235 238 241 240 240 244 248 246 253 258 246 247 260 268 282 294 289 285 284 281 275 276 278 270 263 264 256 252 257 255
270 265 266 242 211 229 232 227 234 240 238 232 223 209 223 233 243 220 204 217 222 215 231 241 219 224 229 224 237 246 243 241 236 235 241 237 239 256 261 262 260 251 245 219 194 180 163 215 225 230 235 239 246 254 263 268 261 253 251 254 254 250 242 238 242 246 258 269 257 253 269 278 280 280 283 286 285 280 276 272 269 264 260 258 248 243 247 251
257 273 304 295 285 260 246 248 274 302 319 290 257 250 243 240 238 226 217 231 223 199 204 234 221 221 228 232 240 247 247 249 245 240 244 243 245 260 264 257 251 240 222 199 181 167 189 230 227 230 238 238 240 248 255 259 259 255 255 258 257 254 247 241 244 244 243 250 256 259 262 263 263 261 264 270 273 275 277 274 271 270 264 256 245 242 248 254
290 278 295 311 292 274 283 318 331 319 315 314 288 248 256 263 258 259 276 286 255 211 209 234 231 222 226 228 232 241 239 240 244 236 234 235 229 238 255 253 249 235 217 220 212 174 201 229 219 231 242 238 236 241 243 246 251 252 251 249 251 255 253 249 248 248 248 251 255 257 255 252 252 252 252 255 261 269 279 281 278 274 270 266 259 255 255 257
289 277 310 344 314 286 292 310 325 318 310 306 278 240 245 270 280 297 308 280 283 273 222 245 258 260 261 252 243 244 242 247 258 257 258 259 236 223 242 249 257 250 208 219 226 193 208 215 207 225 245 238 233 235 234 235 240 243 246 246 246 250 252 252 252 252 253 255 253 251 252 254 252 250 252 256 262 270 276 276 274 272 271 271 267 263 261 259
269 293 310 311 279 273 281 294 348 327 293 271 261 277 292 289 310 336 322 270 263 270 270 307 321 328 321 306 286 278 287 295 293 297 308 302 285 277 273 257 269 290 197 206 226 198 209 219 206 219 243 233 227 232 232 232 234 237 241 246 246 245 245 246 246 244 244 249 252 250 250 252 249 248 251 256 260 263 263 264 267 268 270 271 268 268 269 265
291 312 317 307 269 261 265 303 324 287 269 262 280 313 313 307 323 339 321 293 294 304 328 349 342 335 321 315 317 317 318 314 303 301 301 290 281 278 274 268 264 258 229 216 233 195 203 229 222 222 244 239 227 232 234 233 236 233 228 233 238 241 243 243 243 243 242 242 248 249 247 248 248 248 250 251 251 252 253 254 257 262 268 273 274 271 269 264